Radiation Dose at Monitoring Post of Fukushima Daini Nuclear Power Station
Date,Time,MP-1(microSv/h),MP-2(microSv/h),MP-3(microSv/h),MP-4(microSv/h),MP-5(microSv/h),MP-6(microSv/h),MP-7(microSv/h),Wind Direction,Wind Velocity(m/s),Rain
2016/06/02,00:00,0.435,0.261,0.472,0.416,0.393,0.210,0.181,west,3.8,No
2016/06/02,00:10,0.433,0.261,0.472,0.414,0.389,0.208,0.181,west-northwest,3.3,No
2016/06/02,00:20,0.435,0.260,0.471,0.416,0.392,0.209,0.181,northwest,4.0,No
2016/06/02,00:30,0.433,0.259,0.472,0.415,0.388,0.210,0.181,northwest,5.0,No
2016/06/02,00:40,0.436,0.259,0.472,0.416,0.393,0.209,0.181,northwest,5.7,No
2016/06/02,00:50,0.431,0.259,0.471,0.413,0.390,0.210,0.180,west-northwest,7.0,No
2016/06/02,01:00,0.434,0.261,0.472,0.416,0.391,0.209,0.181,west-northwest,7.0,No
2016/06/02,01:10,0.434,0.258,0.472,0.414,0.392,0.209,0.181,west-northwest,8.4,No
2016/06/02,01:20,0.435,0.262,0.474,0.417,0.390,0.210,0.181,west-northwest,8.6,No
2016/06/02,01:30,0.434,0.260,0.470,0.415,0.392,0.209,0.181,west-northwest,6.9,No
2016/06/02,01:40,0.432,0.261,0.473,0.415,0.390,0.210,0.181,west,6.7,No
2016/06/02,01:50,0.435,0.261,0.471,0.416,0.393,0.210,0.181,west-northwest,5.9,No
2016/06/02,02:00,0.432,0.261,0.476,0.414,0.389,0.210,0.181,west-northwest,6.8,No
2016/06/02,02:10,0.435,0.261,0.470,0.417,0.393,0.210,0.182,west,8.4,No
2016/06/02,02:20,0.431,0.260,0.473,0.415,0.389,0.210,0.183,west-northwest,7.8,No
2016/06/02,02:30,0.435,0.261,0.471,0.416,0.391,0.210,0.181,west-northwest,9.6,No
2016/06/02,02:40,0.434,0.258,0.473,0.413,0.390,0.210,0.182,west-northwest,10.8,No
2016/06/02,02:50,0.433,0.261,0.470,0.416,0.391,0.210,0.181,west-northwest,11.2,No
2016/06/02,03:00,0.433,0.259,0.474,0.413,0.392,0.209,0.181,west-northwest,10.5,No
2016/06/02,03:10,0.432,0.260,0.468,0.415,0.391,0.209,0.182,west-northwest,7.1,No
2016/06/02,03:20,0.435,0.260,0.473,0.414,0.393,0.210,0.182,west,5.8,No
2016/06/02,03:30,0.433,0.260,0.471,0.416,0.391,0.209,0.181,west-northwest,6.1,No
2016/06/02,03:40,0.435,0.261,0.474,0.415,0.392,0.209,0.183,west-northwest,5.3,No
2016/06/02,03:50,0.435,0.261,0.471,0.415,0.391,0.209,0.182,west-northwest,5.6,No
2016/06/02,04:00,0.434,0.261,0.473,0.416,0.392,0.209,0.182,west-northwest,6.5,No
2016/06/02,04:10,0.436,0.260,0.472,0.414,0.390,0.210,0.181,west-northwest,6.9,No
2016/06/02,04:20,0.433,0.261,0.473,0.416,0.391,0.209,0.181,west-northwest,6.7,No
2016/06/02,04:30,0.436,0.260,0.472,0.415,0.390,0.210,0.182,west-northwest,6.1,No
2016/06/02,04:40,0.434,0.260,0.472,0.416,0.390,0.210,0.180,west-northwest,5.2,No
2016/06/02,04:50,0.436,0.259,0.473,0.414,0.391,0.209,0.182,northwest,4.5,No
2016/06/02,05:00,0.433,0.260,0.472,0.416,0.387,0.210,0.181,north-northwest,4.0,No
2016/06/02,05:10,0.432,0.261,0.475,0.414,0.391,0.209,0.182,west-northwest,3.1,No
2016/06/02,05:20,0.433,0.259,0.470,0.415,0.390,0.209,0.182,northwest,3.9,No
2016/06/02,05:30,0.433,0.260,0.473,0.413,0.390,0.209,0.181,north-northwest,4.2,No
2016/06/02,05:40,0.435,0.259,0.469,0.416,0.389,0.210,0.181,north,3.1,No
2016/06/02,05:50,0.433,0.261,0.475,0.415,0.392,0.210,0.181,north,3.1,No
2016/06/02,06:00,0.433,0.259,0.470,0.415,0.385,0.208,0.182,north-northwest,4.0,No
2016/06/02,06:10,0.434,0.258,0.475,0.415,0.390,0.210,0.181,north,2.5,No
2016/06/02,06:20,0.434,0.261,0.471,0.412,0.387,0.209,0.181,north-northwest,3.2,No
2016/06/02,06:30,0.433,0.259,0.475,0.415,0.390,0.209,0.181,northwest,4.0,No
2016/06/02,06:40,0.432,0.257,0.469,0.414,0.390,0.209,0.180,west-northwest,5.1,No
2016/06/02,06:50,0.434,0.261,0.471,0.415,0.391,0.210,0.180,north-northwest,7.0,No
2016/06/02,07:00,0.436,0.258,0.469,0.415,0.392,0.207,0.181,northwest,8.1,No
2016/06/02,07:10,0.430,0.256,0.462,0.409,0.386,0.206,0.179,northwest,6.2,No
2016/06/02,07:20,0.423,0.254,0.460,0.404,0.381,0.204,0.179,west-northwest,5.1,No
2016/06/02,07:30,0.426,0.256,0.464,0.406,0.384,0.206,0.180,northwest,6.4,No
2016/06/02,07:40,0.438,0.261,0.474,0.416,0.394,0.210,0.182,northwest,6.4,No
2016/06/02,07:50,0.435,0.260,0.473,0.414,0.392,0.211,0.181,northwest,7.0,No
2016/06/02,08:00,0.436,0.258,0.468,0.410,0.391,0.212,0.180,northwest,6.5,No
2016/06/02,08:10,0.435,0.261,0.476,0.416,0.394,0.209,0.179,west-northwest,4.4,No
2016/06/02,08:20,0.434,0.260,0.472,0.413,0.391,0.209,0.182,west-northwest,6.2,No
2016/06/02,08:30,0.436,0.261,0.471,0.410,0.392,0.209,0.181,west,4.9,No
2016/06/02,08:40,0.434,0.262,0.476,0.417,0.392,0.209,0.181,northwest,5.5,No
2016/06/02,08:50,0.437,0.261,0.471,0.416,0.389,0.211,0.182,west-northwest,6.2,No
2016/06/02,09:00,0.433,0.259,0.474,0.411,0.393,0.210,0.181,west-northwest,5.5,No
2016/06/02,09:10,0.437,0.261,0.474,0.418,0.391,0.209,0.182,west-northwest,5.0,No
2016/06/02,09:20,0.433,0.259,0.469,0.414,0.388,0.209,0.182,west-northwest,5.0,No
2016/06/02,09:30,0.435,0.260,0.475,0.412,0.393,0.208,0.180,west-northwest,4.7,No
2016/06/02,09:40,0.434,0.260,0.472,0.416,0.390,0.209,0.182,west-northwest,5.3,No
2016/06/02,09:50,0.432,0.259,0.470,0.415,0.386,0.209,0.182,west-northwest,5.0,No
2016/06/02,10:00,0.435,0.260,0.474,0.411,0.395,0.208,0.181,north-northwest,3.8,No
2016/06/02,10:10,0.433,0.256,0.471,0.409,0.392,0.208,0.180,north-northwest,5.3,No
2016/06/02,10:20,0.433,-,0.466,0.415,0.388,0.209,0.181,northwest,4.8,No
2016/06/02,10:30,0.438,-,0.471,0.416,0.384,0.210,0.183,northwest,4.7,No
2016/06/02,10:40,0.433,-,0.471,0.413,0.392,0.208,0.182,northwest,4.8,No
2016/06/02,10:50,0.431,-,0.468,0.411,0.391,0.209,0.181,northwest,7.3,No
2016/06/02,11:00,0.436,-,0.467,0.409,0.389,0.210,0.181,north-northwest,7.8,No
2016/06/02,11:10,0.435,-,0.475,0.416,0.386,0.210,0.183,west-northwest,5.9,No
2016/06/02,11:20,0.431,-,0.474,0.416,0.392,0.210,0.182,northwest,7.9,No
2016/06/02,11:30,0.431,-,0.469,0.416,0.392,0.208,0.182,northwest,9.3,No
2016/06/02,11:40,0.437,-,0.469,0.414,0.390,0.209,0.181,northwest,7.2,No
2016/06/02,11:50,0.435,-,0.468,0.411,0.389,0.208,0.181,northwest,8.2,No
2016/06/02,12:00,0.430,-,0.467,0.411,0.386,0.209,0.181,northwest,6.0,No
2016/06/02,12:10,0.433,-,0.470,0.410,0.386,0.210,0.182,northwest,7.5,No
2016/06/02,12:20,0.437,-,0.476,0.414,0.393,0.210,0.182,west-northwest,6.2,No
2016/06/02,12:30,0.436,-,0.474,0.418,0.392,0.211,0.181,west-northwest,4.8,No
2016/06/02,12:40,0.433,-,0.471,0.415,0.392,0.209,0.182,west-northwest,4.8,No
2016/06/02,12:50,0.438,-,0.469,0.414,0.388,0.210,0.180,west-northwest,6.4,No
2016/06/02,13:00,0.437,-,0.468,0.411,0.389,0.210,0.181,west-northwest,6.8,No
2016/06/02,13:10,0.434,-,0.476,0.415,0.395,0.210,0.183,northwest,3.3,No
2016/06/02,13:20,0.438,-,0.474,0.419,0.393,0.210,0.183,north-northwest,5.4,No
2016/06/02,13:30,0.436,-,0.472,0.416,0.388,0.210,0.181,northwest,4.9,No
2016/06/02,13:40,0.433,-,0.468,0.413,0.392,0.211,0.182,west-northwest,6.1,No
2016/06/02,13:50,0.438,-,0.468,0.412,0.393,0.210,0.182,northwest,6.9,No
2016/06/02,14:00,0.437,-,0.470,0.410,0.393,0.210,0.183,west-northwest,7.7,No
2016/06/02,14:10,0.434,-,0.468,0.410,0.391,0.209,0.183,west-northwest,6.7,No
2016/06/02,14:20,0.431,-,0.472,0.411,0.389,0.209,0.181,west-northwest,3.9,No
2016/06/02,14:30,0.437,-,0.477,0.419,0.387,0.208,0.181,northwest,2.2,No
2016/06/02,14:40,0.437,-,0.475,0.420,0.391,0.211,0.183,north-northwest,5.6,No
2016/06/02,14:50,0.435,-,0.473,0.415,0.393,0.209,0.184,north-northwest,9.1,No
2016/06/02,15:00,0.440,-,0.479,0.420,0.390,0.210,0.181,north-northwest,9.7,No
2016/06/02,15:10,0.435,-,0.474,0.420,0.395,0.209,0.183,north,9.6,No
2016/06/02,15:20,0.438,-,0.475,0.415,0.393,0.210,0.183,north-northwest,8.6,No
2016/06/02,15:30,0.437,-,0.478,0.421,0.390,0.209,0.182,north-northwest,7.8,No
2016/06/02,15:40,0.434,0.255,0.476,0.418,0.388,0.209,0.183,north-northwest,7.6,No
2016/06/02,15:50,0.438,0.257,0.471,0.414,0.392,0.211,0.183,north-northwest,11.2,No
2016/06/02,16:00,0.435,0.255,0.471,0.418,0.392,0.210,0.181,north-northwest,11.0,No
2016/06/02,16:10,0.434,0.257,0.479,0.417,0.390,0.208,0.183,north-northwest,9.1,No
2016/06/02,16:20,0.437,0.257,0.475,0.416,0.386,0.210,0.183,north-northwest,9.1,No
2016/06/02,16:30,0.436,0.257,0.478,0.421,0.390,0.209,0.182,north,6.5,No
2016/06/02,16:40,0.437,0.258,0.479,0.415,0.394,0.211,0.183,north,9.2,No
2016/06/02,16:50,0.439,0.256,0.474,0.420,0.392,0.210,0.183,north-northwest,6.5,No
2016/06/02,17:00,0.435,0.257,0.479,0.417,0.387,0.209,0.182,north,7.5,No
2016/06/02,17:10,0.438,0.257,0.475,0.417,0.392,0.211,0.182,north,9.7,No
2016/06/02,17:20,0.435,0.258,0.477,0.420,0.394,0.210,0.184,north,8.3,No
2016/06/02,17:30,0.436,0.257,0.477,0.415,0.392,0.210,0.183,north,7.5,No
2016/06/02,17:40,0.438,0.257,0.471,0.421,0.391,0.211,0.184,north,7.8,No
2016/06/02,17:50,0.435,0.258,0.480,0.418,0.395,0.210,0.184,north,8.9,No
2016/06/02,18:00,0.440,0.257,0.475,0.418,0.392,0.211,0.183,north-northwest,4.1,No
2016/06/02,18:10,0.435,0.257,0.478,0.420,0.394,0.211,0.183,north-northwest,4.2,No
2016/06/02,18:20,0.440,0.258,0.478,0.418,0.395,0.211,0.183,north-northwest,4.2,No
2016/06/02,18:30,0.435,0.258,0.476,0.419,0.392,0.211,0.183,north-northwest,2.2,No
2016/06/02,18:40,0.437,0.257,0.479,0.418,0.395,0.210,0.184,north,3.0,No
2016/06/02,18:50,0.435,0.257,0.475,0.421,0.394,0.210,0.182,north-northwest,3.4,No
2016/06/02,19:00,0.439,0.257,0.479,0.418,0.394,0.210,0.183,north-northwest,2.5,No
2016/06/02,19:10,0.436,0.256,0.475,0.421,0.395,0.210,0.182,north,3.9,No
2016/06/02,19:20,0.439,0.257,0.480,0.417,0.394,0.211,0.183,north-northwest,3.4,No
2016/06/02,19:30,0.436,0.256,0.474,0.420,0.394,0.210,0.182,north,4.3,No
2016/06/02,19:40,0.439,0.258,0.478,0.417,0.394,0.210,0.183,north,6.3,No
2016/06/02,19:50,0.437,0.256,0.475,0.421,0.393,0.210,0.184,north,6.1,No
2016/06/02,20:00,0.439,0.257,0.480,0.417,0.393,0.212,0.183,north,5.9,No
2016/06/02,20:10,0.437,0.256,0.475,0.419,0.397,0.210,0.183,north-northwest,5.5,No
2016/06/02,20:20,0.440,0.257,0.478,0.418,0.393,0.211,0.184,north-northwest,6.2,No
2016/06/02,20:30,0.437,0.258,0.474,0.418,0.395,0.211,0.182,northwest,5.9,No
2016/06/02,20:40,0.438,0.258,0.479,0.419,0.393,0.210,0.184,northwest,6.4,No
2016/06/02,20:50,0.440,0.258,0.473,0.417,0.394,0.211,0.184,northwest,7.0,No
2016/06/02,21:00,0.436,0.257,0.478,0.419,0.392,0.210,0.184,north-northwest,6.1,No
2016/06/02,21:10,0.440,0.257,0.476,0.417,0.393,0.210,0.183,north,4.5,No
2016/06/02,21:20,0.435,0.259,0.477,0.421,0.393,0.210,0.184,north,6.1,No
2016/06/02,21:30,0.437,0.257,0.474,0.417,0.392,0.210,0.183,north-northwest,6.1,No
2016/06/02,21:40,0.439,0.257,0.477,0.420,0.394,0.211,0.183,north-northwest,6.2,No
2016/06/02,21:50,0.438,0.256,0.477,0.417,0.392,0.211,0.183,north-northwest,4.8,No
2016/06/02,22:00,0.438,0.257,0.476,0.419,0.393,0.211,0.183,north-northwest,5.8,No
2016/06/02,22:10,0.436,0.257,0.476,0.418,0.392,0.211,0.183,north-northwest,6.4,No
2016/06/02,22:20,0.437,0.257,0.476,0.418,0.390,0.210,0.183,northwest,5.3,No
2016/06/02,22:30,0.438,0.259,0.479,0.419,0.392,0.211,0.182,northwest,4.2,No
2016/06/02,22:40,0.436,0.257,0.475,0.416,0.391,0.212,0.183,west-northwest,3.6,No
2016/06/02,22:50,0.438,0.258,0.478,0.420,0.393,0.210,0.184,northwest,5.4,No
2016/06/02,23:00,0.436,0.257,0.475,0.417,0.392,0.211,0.183,north-northwest,5.6,No
2016/06/02,23:10,0.437,0.258,0.479,0.419,0.391,0.210,0.183,north-northwest,5.4,No
2016/06/02,23:20,0.437,0.257,0.476,0.418,0.392,0.210,0.183,northwest,5.3,No
2016/06/02,23:30,0.438,0.257,0.478,0.418,0.391,0.210,0.182,west-northwest,5.2,No
2016/06/02,23:40,0.438,0.257,0.476,0.421,0.393,0.211,0.184,west-northwest,5.2,No
2016/06/02,23:50,0.437,0.257,0.475,0.417,0.391,0.210,0.182,west-northwest,4.5,No
